SILO ALERT LOG


Silo ID Alert Type Alert Message Silo Type Points Depth (mm) Strength Temperature (°C) Humidity (%) Height (mm) Volume (㎥) Weight (t) Flag Time
DJSSD01 Humidity 습도센서 측정값이 80% 초과 796 2554 4649 4.6 84.1 5525 769.073 486.208 0 2024-01-11 07:39:32.000
DJSAD17 Humidity 습도센서 측정값이 80% 초과 443 3129 4725 2.9 80.6 4450 443.201 280.192 0 2024-01-11 07:39:31.000
DJSAD18 Humidity 습도센서 측정값이 80% 초과 113 1377 5812 3.5 80.8 6202 617.661 390.485 11 2024-01-11 07:39:31.000
DJDJD01 Temperature 온도센서 측정값이 0도 미만 84 8058 3898 -0.7 80.9 -378 -45.797 0 0 2024-01-11 07:39:31.000
DJDJD01 Humidity 습도센서 측정값이 80% 초과 84 8058 3898 -0.7 80.9 -378 -45.797 0 0 2024-01-11 07:39:31.000
DJHNR11 Temperature 온도센서 측정값이 0도 미만 호퍼 233 3248 1081 -3.8 75.5 7131 99.873 63.14 11 2024-01-11 07:39:31.000
DJSAD16 Humidity 습도센서 측정값이 80% 초과 91 6455 3408 3.1 80.8 1124 111.983 70.795 11 2024-01-11 07:39:31.000
DJSSD09 Temperature 온도센서 측정값이 0도 미만 121 3054 3339 -45.4 0 4625 643.778 406.997 11 2024-01-11 07:39:31.000
DJDJD04 Humidity 습도센서 측정값이 80% 초과 282 4200 4480 2.4 82.1 3479 421.574 266.519 11 2024-01-11 07:39:31.000
DJSSD11 Humidity 습도센서 측정값이 80% 초과 호퍼 444 7407 146 -3.3 83.9 3822 28.512 15.539 0 2024-01-11 07:39:31.000
DJSSD11 Temperature 온도센서 측정값이 0도 미만 호퍼 444 7407 146 -3.3 83.9 3822 28.512 15.539 0 2024-01-11 07:39:31.000
DJHNR13 Temperature 온도센서 측정값이 0도 미만 호퍼 36 2807 3006 -2.6 70.4 7572 109.382 69.152 11 2024-01-11 07:39:31.000
DJHNR14 Temperature 온도센서 측정값이 0도 미만 호퍼 26 3005 4470 -2.9 73.2 7374 105.109 66.45 11 2024-01-11 07:39:30.000
DJHNR04 Temperature 온도센서 측정값이 0도 미만 호퍼 0 15500 4998 -0.5 78.6 -119 0 0 29 2024-01-11 07:39:29.000
DJHNR03 Temperature 온도센서 상태 이상 호퍼 0 15500 0 -999 -999 -119 0 0 31 2024-01-11 07:39:24.000
DJSSD12 Temperature 온도센서 상태 이상 호퍼 0 11350 0 -999 -999 -120 0 0 31 2024-01-11 07:39:24.000
DJHNR12 Humidity 습도센서 측정값이 80% 초과 호퍼 0 10500 0 -3.7 82.8 -120 0 0 31 2024-01-11 07:39:23.000
DJHNR12 Temperature 온도센서 측정값이 0도 미만 호퍼 0 10500 0 -3.7 82.8 -120 0 0 31 2024-01-11 07:39:23.000
DJSAD03 Humidity 습도센서 측정값이 80% 초과 447 1666 6060 1.2 84.5 7113 294.488 186.176 0 2024-01-11 06:39:40.000
DJSAD01 Humidity 습도센서 측정값이 80% 초과 447 1540 7219 0.4 88.6 7239 299.688 189.463 0 2024-01-11 06:39:40.000

[첫 페이지] [10001] [10002] [10003] [10004] 10005 [10006] [10007] [10008] [10009] [마지막 페이지]